COSMOS 839 DEB

Satellite information

Favourite Embed

Satellite Type and Status

DEBRISIN ORBIT

Key statistics

Satellite COSMOS 839 DEB at a glance.

Uptime

18014

Days in orbit

Revolutions

≈ 12.4

Per day

Orbit

MEO

Medium Earth Orbit

Inclination

65.7

Latest

Satellite identification and parameters

Extended collection of information and parameters for COSMOS 839 DEB.

Object identification

Identified? True

Debris? True

Object name: COSMOS 839 DEB

International designator: 1976-067BZ

Object number (NORAD): 36300

Object ID (CCSDS): 36300

Country: COMMONWEALTH OF INDEPENDENT STATES (CIS)

Current information (Y/N): Y

RCS size: SMALL

Orbital parameters

Period: 116.494 minutes

Inclination: 65.6834 deg

SMA: 7901.244 km

Apoapsis: 2057.617 km

Periapsis: 988.6 km

RAAN: 45.4079 deg

Eccentricy: 0.06764868

Argument of periapsis: 120.8849 deg

Mean anomaly: 27.5057 deg

Mean motion: 12.36117015 rev/day

Mean motion (dot): -0.00000143 rev/day2

B* drag term: -0.00031464301 1/REarth

Two-line elements (TLE)

Creation date: Nov. 1, 2025, 7:40 p.m.

Reference frame: TEME

Reference center: EARTH

Epoch: Oct. 31, 2025, 5:34 p.m. UTC

TLE line 0: 0 COSMOS 839 DEB

TLE line 1: 1 36300U 76067BZ 25304.73256591 -.00000143 00000-0 -31464-3 0 9991

TLE line 2: 2 36300 65.6834 45.4079 0676487 120.8849 27.5057 12.36117015732729

Live tracking on map

Real-time ground track for satellite COSMOS 839 DEB.

In-orbit conjunctions

A list of the most updated potential collisions computed for object COSMOS 839 DEB.

Target Orbit TCA Probability of collision Miss distance Type
COSMOS 1363 LEO 2025-05-01 00:20:03 0.0002458279 645.0 (m) PAYLOAD

Associated space launch

ASAT target satellite

COSMOS 839 DEB was lifted into orbit during the mission ‘Kosmos-3M | DS-P1-M 9 (Kosmos-839)’, on board a Kosmos-3M space rocket.

The launch took place on July 8, 1976, 9:08 p.m. from 132/1 (132L).

For more information about the launch, click the button.

Launch to space Kosmos-3M | DS-P1-M 9 (Kosmos-839)
Kosmos-3M | DS-P1-M 9 (Kosmos-839)

Agency: N/A

Status: Launch Successful

Launch date: July 8, 1976, 9:08 p.m. UTC

Rocket: Kosmos-3M

Launch pad: 132/1 (132L)

Location: Plesetsk Cosmodrome, Russian Federation

...

Latest news about this satellite

There are no fresh news available about this satellite. Check back as we update our databases every day.


Newsletter sign-up

Weekly statistics, charts and insights to help you stay on top of the space industry.